Location: G�ndlingen
(48.0142°N, 7.6396°E)
Time: 08:04:07
(UTC+00:00)

Cosmos 2369 Rocket - Pass Details

Date: 05 July 2020
Orbit: 830 x 851 km, 71.0° (Epoch: 04 August)

Event Time Altitude Azimuth Distance (km) Brightness Sun altitude
Rises 23:37:22 0° 333° (NNW) 3,384 6.4 -19.3°
Reaches altitude 10° 23:39:49 10° 335° (NNW) 2,447 5.6 -19.3°
Maximum altitude 23:45:26 73° 61° (ENE) 873 2.3 -19.3°
Enters shadow 23:48:43 26° 141° (SE) 1,602 3.2 -19.3°
